Weather History for Fairhope, AL

Change the Weather History Date:

Thursday, May 16, 2013

  Actual Average (KBFM) Record (KBFM)
Temperature  
Mean Temperature 72 °F -  
Max Temperature 82 °F 81 °F 89 °F (1998)
Min Temperature 62 °F 62 °F 50 °F (2014)
Cooling Degree Days 7    
Growing Degree Days 22 (Base 50)    
Moisture  
Dew Point 65 °F    
Average Humidity 80    
Maximum Humidity 100    
Minimum Humidity 58    
Precipitation  
Precipitation 0.00 in - - ()
Sea Level Pressure  
Sea Level Pressure 30.04 in    
Wind  
Wind Speed 4 mph (SSE)    
Max Wind Speed 14 mph    
Max Gust Speed 18 mph    
Visibility 8 miles    
Events Rain    
Averages and records for this station are not official NWS values.
T = Trace of Precipitation, MM = Missing Value Source: NWS Daily Summary

Daily Weather History Graph

Daily Weather History Graph

Search for Another Location

Airport:

Trip Planner

Search our weather history database for the weather conditions in past years. The results will help you decide how hot, cold, wet, or windy it might be!

Date:

Astronomy

May. 16, 2013 Rise Set
Actual Time 5:56 AM CDT 7:39 PM CDT
Civil Twilight 5:30 AM CDT 8:06 PM CDT
Nautical Twilight 4:58 AM CDT 8:37 PM CDT
Astronomical Twilight 4:24 AM CDT 9:11 PM CDT
Moon 11:22 AM CDT (5/16) 12:06 AM CDT (5/16)
Length of Visible Light 14h 36m
Length of Day
13h 43m
Waxing Crescent, 36% of the Moon is Illuminated
May 16
Waxing Crescent
May 17
First Quarter
May 24
Full
May 31
Last Quarter
Jun 8
New

Hourly Weather History & Observations

Time (CDT) Temp. Heat Index Dew Point Humidity Pressure Visibility Wind Dir Wind Speed Gust Speed Precip Events Conditions
12:15 AM 62.6 °F - 62.6 °F 100% 30.07 in 7.0 mi Calm Calm - N/A   Clear
12:35 AM 62.6 °F - 62.6 °F 100% 30.06 in 10.0 mi Calm Calm - N/A   Clear
12:55 AM 62.6 °F - 60.8 °F 94% 30.06 in 7.0 mi Calm Calm - N/A   Clear
1:15 AM 62.6 °F - 62.6 °F 100% 30.05 in 10.0 mi Calm Calm - N/A   Scattered Clouds
1:35 AM 62.6 °F - 62.6 °F 100% 30.05 in 7.0 mi Calm Calm - N/A   Mostly Cloudy
1:55 AM 64.4 °F - 62.6 °F 94% 30.05 in 7.0 mi Calm Calm - N/A   Overcast
2:15 AM 64.4 °F - 62.6 °F 94% 30.04 in 10.0 mi Calm Calm - N/A   Mostly Cloudy
2:35 AM 64.4 °F - 62.6 °F 94% 30.04 in 7.0 mi Calm Calm - N/A   Mostly Cloudy
2:55 AM 64.4 °F - 62.6 °F 94% 30.03 in 5.0 mi Calm Calm - N/A   Mostly Cloudy
3:15 AM 64.4 °F - 62.6 °F 94% 30.03 in 7.0 mi Calm Calm - N/A   Scattered Clouds
3:35 AM 64.4 °F - 62.6 °F 94% 30.04 in 7.0 mi Calm Calm - N/A   Clear
3:55 AM 64.4 °F - 62.6 °F 94% 30.05 in 5.0 mi Calm Calm - N/A   Clear
4:15 AM 64.4 °F - 62.6 °F 94% 30.05 in 7.0 mi Calm Calm - N/A   Clear
4:35 AM 64.4 °F - 62.6 °F 94% 30.05 in 7.0 mi Calm Calm - N/A   Clear
4:55 AM 62.6 °F - 62.6 °F 100% 30.06 in 5.0 mi Calm Calm - N/A   Scattered Clouds
5:15 AM 64.4 °F - 62.6 °F 94% 30.05 in 7.0 mi Calm Calm - N/A   Scattered Clouds
5:35 AM 64.4 °F - 62.6 °F 94% 30.05 in 7.0 mi Calm Calm - N/A   Clear
5:55 AM 64.4 °F - 64.4 °F 100% 30.04 in 7.0 mi Calm Calm - N/A   Clear
6:15 AM 66.2 °F - 64.4 °F 94% 30.03 in 7.0 mi ESE 4.6 mph - N/A   Clear
6:35 AM 64.4 °F - 64.4 °F 100% 30.04 in 7.0 mi Calm Calm - N/A   Clear
6:55 AM 68.0 °F - 64.4 °F 88% 30.05 in 5.0 mi Calm Calm - N/A   Clear
7:15 AM 68.0 °F - 66.2 °F 94% 30.05 in 5.0 mi Calm Calm - N/A   Clear
7:35 AM 68.0 °F - 68.0 °F 100% 30.06 in 7.0 mi Calm Calm - N/A   Clear
7:55 AM 69.8 °F - 68.0 °F 94% 30.07 in 7.0 mi Calm Calm - N/A   Scattered Clouds
8:15 AM 69.8 °F - 68.0 °F 94% 30.07 in 5.0 mi Calm Calm - N/A   Clear
8:55 AM 73.4 °F - 69.8 °F 88% 30.08 in 7.0 mi ESE 3.5 mph - N/A   Clear
9:15 AM 73.4 °F - 69.8 °F 88% 30.07 in 7.0 mi ESE 4.6 mph - N/A   Clear
9:35 AM 77.0 °F - 69.8 °F 78% 30.07 in 7.0 mi SSE 9.2 mph - N/A   Clear
9:55 AM 78.8 °F - 68.0 °F 69% 30.07 in 10.0 mi SSE 10.4 mph - N/A   Clear
10:15 AM 78.8 °F - 68.0 °F 69% 30.07 in 10.0 mi SSE 10.4 mph - N/A   Mostly Cloudy
10:35 AM 78.8 °F - 68.0 °F 69% 30.07 in 7.0 mi SE 10.4 mph - N/A   Mostly Cloudy
10:55 AM 78.8 °F - 68.0 °F 69% 30.07 in 7.0 mi SSE 11.5 mph - N/A   Mostly Cloudy
11:15 AM 80.6 °F 83.2 °F 68.0 °F 65% 30.08 in 7.0 mi SSE 10.4 mph - N/A   Mostly Cloudy
11:35 AM 80.6 °F 83.2 °F 68.0 °F 65% 30.07 in 10.0 mi SSE 10.4 mph 16.1 mph N/A   Mostly Cloudy
11:55 AM 80.6 °F 83.2 °F 68.0 °F 65% 30.08 in 10.0 mi SSE 12.7 mph 16.1 mph N/A   Overcast
12:15 PM 80.6 °F 83.2 °F 68.0 °F 65% 30.07 in 10.0 mi South 11.5 mph 16.1 mph N/A   Overcast
12:35 PM 80.6 °F 83.2 °F 68.0 °F 65% 30.07 in 7.0 mi SSE 12.7 mph - N/A   Overcast
12:55 PM 80.6 °F 82.7 °F 66.2 °F 61% 30.07 in 10.0 mi SSE 9.2 mph - N/A   Mostly Cloudy
1:15 PM 80.6 °F 83.2 °F 68.0 °F 65% 30.07 in 10.0 mi South 9.2 mph - N/A   Mostly Cloudy
1:35 PM 80.6 °F 83.2 °F 68.0 °F 65% 30.06 in 10.0 mi South 11.5 mph 16.1 mph N/A   Mostly Cloudy
1:55 PM 82.4 °F 84.6 °F 66.2 °F 58% 30.05 in 7.0 mi SSE 10.4 mph - N/A   Scattered Clouds
2:15 PM 82.4 °F 85.4 °F 68.0 °F 62% 30.05 in 10.0 mi SSE 10.4 mph - N/A   Scattered Clouds
2:35 PM 82.4 °F 85.4 °F 68.0 °F 62% 30.04 in 10.0 mi SSE 11.5 mph 16.1 mph N/A   Scattered Clouds
2:55 PM 82.4 °F 85.4 °F 68.0 °F 62% 30.04 in 7.0 mi South 10.4 mph 17.3 mph N/A   Scattered Clouds
3:15 PM 80.6 °F 82.7 °F 66.2 °F 61% 30.03 in 10.0 mi SSE 12.7 mph - N/A   Scattered Clouds
3:35 PM 80.6 °F 82.7 °F 66.2 °F 61% 30.03 in 10.0 mi South 11.5 mph - N/A   Clear
3:55 PM 80.6 °F 82.3 °F 64.4 °F 58% 30.02 in 10.0 mi South 13.8 mph - N/A   Clear
4:15 PM 80.6 °F 82.3 °F 64.4 °F 58% 30.02 in 10.0 mi SSE 13.8 mph - N/A   Clear
4:35 PM 80.6 °F 82.7 °F 66.2 °F 61% 30.02 in 7.0 mi SSE 12.7 mph - N/A   Clear
4:55 PM 80.6 °F 82.3 °F 64.4 °F 58% 30.01 in 10.0 mi SSE 12.7 mph - N/A   Clear
5:15 PM 80.6 °F 82.3 °F 64.4 °F 58% 30.01 in 10.0 mi South 12.7 mph 18.4 mph N/A   Scattered Clouds
5:35 PM 78.8 °F - 64.4 °F 61% 30.01 in 10.0 mi South 11.5 mph - N/A   Scattered Clouds
5:55 PM 78.8 °F - 64.4 °F 61% 30.00 in 10.0 mi SSE 13.8 mph - N/A   Mostly Cloudy
6:15 PM 78.8 °F - 64.4 °F 61% 30.00 in 10.0 mi SE 10.4 mph - N/A   Scattered Clouds
6:55 PM 77.0 °F - 64.4 °F 65% 30.01 in 7.0 mi SSE 8.1 mph - N/A   Overcast
7:15 PM 75.2 °F - 64.4 °F 69% 30.01 in 10.0 mi SSE 6.9 mph - N/A   Scattered Clouds
7:35 PM 75.2 °F - 64.4 °F 69% 30.02 in 10.0 mi SE 4.6 mph - N/A   Scattered Clouds
7:55 PM 73.4 °F - 64.4 °F 73% 30.02 in 10.0 mi SE 6.9 mph - N/A   Scattered Clouds
8:15 PM 73.4 °F - 64.4 °F 73% 30.01 in 10.0 mi SE 6.9 mph - N/A   Clear
8:35 PM 71.6 °F - 64.4 °F 78% 30.01 in 10.0 mi SE 5.8 mph - N/A   Clear
8:55 PM 71.6 °F - 64.4 °F 78% 30.02 in 10.0 mi ESE 5.8 mph - N/A   Clear
9:15 PM 71.6 °F - 64.4 °F 78% 30.02 in 10.0 mi ESE 4.6 mph - N/A   Clear
9:35 PM 71.6 °F - 66.2 °F 83% 30.02 in 7.0 mi ESE 3.5 mph - N/A   Clear
9:55 PM 69.8 °F - 66.2 °F 88% 30.03 in 7.0 mi Calm Calm - N/A   Clear
10:15 PM 68.0 °F - 64.4 °F 88% 30.03 in 10.0 mi Calm Calm - N/A   Clear
10:35 PM 68.0 °F - 64.4 °F 88% 30.03 in 10.0 mi Calm Calm - N/A   Clear
10:55 PM 66.2 °F - 64.4 °F 94% 30.04 in 7.0 mi Calm Calm - N/A   Clear
11:15 PM 66.2 °F - 64.4 °F 94% 30.03 in 1.0 mi Calm Calm - N/A Rain Light Rain
11:55 PM 66.2 °F - 64.4 °F 94% 30.01 in 7.0 mi SE 4.6 mph - N/A   Clear